PRGER SBMT-SBBI

Flight info

Callsign PRGER
Flight time 0h 49m
Altitude 30000
Route CGO DCT CURSE DCT RAXIT DCT ASGOL DCT BI114 DCT GRADE DCT CT127 DCT BI063 DCT BI062 DCT BI002
Aircraft TBM9/L-SDFGRWY/S

Departure

Time 2026-05-04 17:34
Airport Campo de Marte Airport (SBMT)

Arrival

Time 2026-05-04 18:24
Airport Bacacheri Airport (SBBI)
Time Latitude Longitude Altitude Speed Heading
2026-05-04 16:41 -23.51199 -46.63349 2375 ft 0 kts 183°
2026-05-04 17:21 -23.51198 -46.63349 2375 ft 0 kts 183°
2026-05-04 17:22 -23.51209 -46.63352 2402 ft 4 kts 207°
2026-05-04 17:23 -23.51168 -46.63429 2375 ft 6 kts 350°
2026-05-04 17:23 -23.51124 -46.63438 2375 ft 7 kts 352°
2026-05-04 17:23 -23.51048 -46.63450 2375 ft 0 kts 350°
2026-05-04 17:24 -23.51028 -46.63431 2375 ft 5 kts 101°
2026-05-04 17:25 -23.51034 -46.63392 2375 ft 6 kts 100°
2026-05-04 17:25 -23.51052 -46.63293 2375 ft 8 kts 99°
2026-05-04 17:26 -23.51073 -46.63165 2375 ft 10 kts 103°
2026-05-04 17:26 -23.51094 -46.63042 2375 ft 0 kts 98°
2026-05-04 17:32 -23.51094 -46.63032 2375 ft 3 kts 93°
2026-05-04 17:33 -23.51032 -46.63038 2375 ft 5 kts 279°
2026-05-04 17:33 -23.51022 -46.63106 2375 ft 24 kts 279°
2026-05-04 17:34 -23.50652 -46.65210 2942 ft 125 kts 282°
2026-05-04 17:34 -23.50459 -46.66152 3438 ft 130 kts 280°
2026-05-04 17:35 -23.50483 -46.69114 4934 ft 133 kts 261°
2026-05-04 17:35 -23.50749 -46.71544 5540 ft 170 kts 269°
2026-05-04 17:35 -23.50647 -46.72792 6177 ft 164 kts 279°
2026-05-04 17:36 -23.50411 -46.74003 6702 ft 164 kts 285°
2026-05-04 17:36 -23.50499 -46.75243 7193 ft 168 kts 258°
2026-05-04 17:36 -23.50905 -46.76448 7694 ft 171 kts 245°
2026-05-04 17:36 -23.51545 -46.77545 8228 ft 173 kts 236°
2026-05-04 17:37 -23.52362 -46.78518 8739 ft 175 kts 230°
2026-05-04 17:37 -23.53360 -46.79291 9229 ft 182 kts 203°
2026-05-04 17:37 -23.54618 -46.79499 9740 ft 185 kts 189°
2026-05-04 17:37 -23.55918 -46.79601 10191 ft 188 kts 189°
2026-05-04 17:38 -23.57221 -46.79702 10711 ft 187 kts 189°
2026-05-04 17:38 -23.58508 -46.79800 11184 ft 188 kts 189°
2026-05-04 17:38 -23.59832 -46.79896 11668 ft 188 kts 188°
2026-05-04 17:38 -23.61125 -46.79982 12157 ft 189 kts 188°
2026-05-04 17:39 -23.63869 -46.80187 12721 ft 211 kts 189°
2026-05-04 17:39 -23.65326 -46.80308 13169 ft 210 kts 189°
2026-05-04 17:39 -23.66781 -46.80426 13605 ft 210 kts 189°
2026-05-04 17:40 -23.68243 -46.80538 14043 ft 211 kts 189°
2026-05-04 17:40 -23.69216 -46.80611 14283 ft 211 kts 189°
2026-05-04 17:40 -23.70690 -46.80717 14652 ft 213 kts 189°
2026-05-04 17:40 -23.72175 -46.80816 15028 ft 214 kts 189°
2026-05-04 17:41 -23.73664 -46.80910 15403 ft 214 kts 190°
2026-05-04 17:41 -23.75015 -46.81433 15800 ft 205 kts 221°
2026-05-04 17:41 -23.76001 -46.82538 16149 ft 203 kts 235°
2026-05-04 17:41 -23.76865 -46.83764 16519 ft 204 kts 235°
2026-05-04 17:42 -23.77767 -46.84970 16887 ft 205 kts 233°
2026-05-04 17:42 -23.78689 -46.86160 17265 ft 206 kts 233°
2026-05-04 17:42 -23.79613 -46.87357 17649 ft 206 kts 233°
2026-05-04 17:42 -23.80528 -46.88546 18029 ft 207 kts 234°
2026-05-04 17:43 -23.81457 -46.89755 18405 ft 208 kts 234°
2026-05-04 17:43 -23.82391 -46.90969 18766 ft 209 kts 234°
2026-05-04 17:43 -23.83325 -46.92182 19120 ft 209 kts 234°
2026-05-04 17:43 -23.84263 -46.93404 19498 ft 210 kts 234°
2026-05-04 17:44 -23.85204 -46.94628 19901 ft 211 kts 234°
2026-05-04 17:44 -23.86148 -46.95858 20294 ft 211 kts 234°
2026-05-04 17:44 -23.87096 -46.97090 20687 ft 213 kts 234°
2026-05-04 17:44 -23.88048 -46.98330 21089 ft 213 kts 234°
2026-05-04 17:45 -23.89003 -46.99575 21488 ft 214 kts 234°
2026-05-04 17:45 -23.89962 -47.00824 21887 ft 215 kts 234°
2026-05-04 17:45 -23.90924 -47.02078 22253 ft 216 kts 234°
2026-05-04 17:45 -23.91894 -47.03340 22617 ft 217 kts 234°
2026-05-04 17:46 -23.92867 -47.04611 23021 ft 218 kts 234°
2026-05-04 17:46 -23.93842 -47.05882 23425 ft 219 kts 234°
2026-05-04 17:46 -23.94823 -47.07162 23791 ft 220 kts 234°
2026-05-04 17:46 -23.95807 -47.08446 24124 ft 221 kts 234°
2026-05-04 17:47 -23.96727 -47.09646 24431 ft 222 kts 234°
2026-05-04 17:47 -23.97701 -47.10917 24765 ft 222 kts 234°
2026-05-04 17:47 -23.98692 -47.12212 25091 ft 223 kts 234°
2026-05-04 17:47 -23.99689 -47.13515 25424 ft 224 kts 234°
2026-05-04 17:48 -24.00690 -47.14822 25764 ft 224 kts 234°
2026-05-04 17:48 -24.01695 -47.16135 26093 ft 225 kts 234°
2026-05-04 17:48 -24.02704 -47.17453 26429 ft 226 kts 234°
2026-05-04 17:48 -24.03715 -47.18776 26756 ft 227 kts 234°
2026-05-04 17:49 -24.04737 -47.20116 27005 ft 231 kts 235°
2026-05-04 17:49 -24.05775 -47.21476 27251 ft 234 kts 234°
2026-05-04 17:49 -24.06828 -47.22852 27502 ft 238 kts 234°
2026-05-04 17:49 -24.07896 -47.24248 27751 ft 240 kts 235°
2026-05-04 17:50 -24.08971 -47.25657 28002 ft 242 kts 234°
2026-05-04 17:50 -24.10052 -47.27074 28255 ft 242 kts 235°
2026-05-04 17:50 -24.11133 -47.28491 28514 ft 243 kts 235°
2026-05-04 17:50 -24.12220 -47.29913 28764 ft 243 kts 234°
2026-05-04 17:51 -24.13293 -47.31318 29026 ft 244 kts 235°
2026-05-04 17:51 -24.14380 -47.32745 29294 ft 244 kts 235°
2026-05-04 17:51 -24.15470 -47.34174 29561 ft 243 kts 235°
2026-05-04 17:51 -24.16555 -47.35597 29834 ft 244 kts 235°
2026-05-04 17:52 -24.17642 -47.37024 30099 ft 245 kts 235°
2026-05-04 17:52 -24.18752 -47.38486 30109 ft 254 kts 235°
2026-05-04 17:52 -24.19900 -47.39998 30104 ft 262 kts 234°
2026-05-04 17:52 -24.21057 -47.41521 30099 ft 264 kts 234°
2026-05-04 17:53 -24.22140 -47.42941 30107 ft 264 kts 234°
2026-05-04 17:53 -24.23267 -47.44418 30103 ft 264 kts 234°
2026-05-04 17:53 -24.24448 -47.45969 30107 ft 266 kts 234°
2026-05-04 17:53 -24.25641 -47.47543 30102 ft 271 kts 234°
2026-05-04 17:54 -24.26855 -47.49144 30104 ft 275 kts 234°
2026-05-04 17:54 -24.28087 -47.50765 30110 ft 278 kts 234°
2026-05-04 17:54 -24.29331 -47.52404 30107 ft 281 kts 234°
2026-05-04 17:54 -24.30588 -47.54059 30105 ft 283 kts 234°
2026-05-04 17:55 -24.31845 -47.55715 30101 ft 282 kts 234°
2026-05-04 17:55 -24.33100 -47.57367 30100 ft 281 kts 234°
2026-05-04 17:55 -24.34334 -47.58992 30114 ft 280 kts 234°
2026-05-04 17:55 -24.35578 -47.60633 30104 ft 280 kts 234°
2026-05-04 17:56 -24.36821 -47.62273 30106 ft 279 kts 234°
2026-05-04 17:56 -24.38064 -47.63913 30094 ft 279 kts 234°
2026-05-04 17:56 -24.39302 -47.65548 30102 ft 278 kts 234°
2026-05-04 17:56 -24.40542 -47.67184 30106 ft 279 kts 234°
2026-05-04 17:57 -24.41786 -47.68817 30095 ft 279 kts 232°
2026-05-04 17:57 -24.43170 -47.70319 30102 ft 281 kts 227°
2026-05-04 17:57 -24.44612 -47.71767 30102 ft 281 kts 227°
2026-05-04 17:57 -24.46038 -47.73228 30108 ft 280 kts 227°
2026-05-04 17:58 -24.47470 -47.74694 30101 ft 281 kts 227°
2026-05-04 17:58 -24.48886 -47.76134 30103 ft 281 kts 227°
2026-05-04 17:58 -24.50319 -47.77592 30100 ft 281 kts 227°
2026-05-04 17:58 -24.51752 -47.79053 30098 ft 281 kts 227°
2026-05-04 17:59 -24.53182 -47.80512 30099 ft 281 kts 227°
2026-05-04 17:59 -24.54613 -47.81972 30097 ft 281 kts 227°
2026-05-04 17:59 -24.57443 -47.84860 30113 ft 281 kts 227°
2026-05-04 18:00 -24.58910 -47.86358 30107 ft 281 kts 227°
2026-05-04 18:00 -24.60341 -47.87820 30098 ft 281 kts 227°
2026-05-04 18:00 -24.61773 -47.89282 30103 ft 281 kts 227°
2026-05-04 18:00 -24.63192 -47.90733 30105 ft 281 kts 227°
2026-05-04 18:01 -24.64622 -47.92195 30109 ft 281 kts 227°
2026-05-04 18:01 -24.66057 -47.93663 30113 ft 281 kts 227°
2026-05-04 18:01 -24.67488 -47.95127 30108 ft 281 kts 227°
2026-05-04 18:02 -24.70353 -47.98058 30105 ft 281 kts 227°
2026-05-04 18:02 -24.71788 -47.99528 30016 ft 284 kts 227°
2026-05-04 18:02 -24.73252 -48.01037 29590 ft 289 kts 227°
2026-05-04 18:02 -24.74731 -48.02555 29119 ft 291 kts 226°
2026-05-04 18:03 -24.76217 -48.04074 28662 ft 292 kts 227°
2026-05-04 18:03 -24.77690 -48.05583 28220 ft 294 kts 227°
2026-05-04 18:03 -24.79193 -48.07129 27774 ft 296 kts 227°
2026-05-04 18:03 -24.80705 -48.08682 27339 ft 298 kts 226°
2026-05-04 18:04 -24.82223 -48.10239 26884 ft 299 kts 227°
2026-05-04 18:04 -24.83752 -48.11811 26410 ft 300 kts 227°
2026-05-04 18:04 -24.86822 -48.14968 25449 ft 304 kts 226°
2026-05-04 18:05 -24.88370 -48.16561 24973 ft 304 kts 226°
2026-05-04 18:05 -24.89922 -48.18155 24509 ft 304 kts 226°
2026-05-04 18:05 -24.91468 -48.19745 24053 ft 303 kts 226°
2026-05-04 18:05 -24.92989 -48.21311 23597 ft 303 kts 226°
2026-05-04 18:06 -24.96054 -48.24467 22539 ft 301 kts 226°
2026-05-04 18:06 -24.97584 -48.26045 22027 ft 300 kts 226°
2026-05-04 18:06 -24.99103 -48.27610 21599 ft 297 kts 226°
2026-05-04 18:07 -25.00608 -48.29158 21210 ft 294 kts 226°
2026-05-04 18:07 -25.02094 -48.30690 20824 ft 292 kts 226°
2026-05-04 18:07 -25.03572 -48.32218 20435 ft 290 kts 226°
2026-05-04 18:07 -25.05039 -48.33734 20058 ft 289 kts 226°
2026-05-04 18:08 -25.06505 -48.35249 19673 ft 288 kts 226°
2026-05-04 18:08 -25.07962 -48.36754 19298 ft 287 kts 226°
2026-05-04 18:08 -25.09414 -48.38257 18916 ft 286 kts 226°
2026-05-04 18:08 -25.10869 -48.39762 18542 ft 286 kts 226°
2026-05-04 18:09 -25.13657 -48.42799 17799 ft 281 kts 230°
2026-05-04 18:09 -25.16311 -48.45958 17124 ft 276 kts 230°
2026-05-04 18:10 -25.17603 -48.47485 16802 ft 274 kts 230°
2026-05-04 18:10 -25.18901 -48.49028 16478 ft 273 kts 230°
2026-05-04 18:10 -25.20192 -48.50564 16153 ft 272 kts 230°
2026-05-04 18:10 -25.21480 -48.52094 15829 ft 271 kts 230°
2026-05-04 18:11 -25.22764 -48.53620 15508 ft 271 kts 230°
2026-05-04 18:11 -25.24046 -48.55145 15180 ft 270 kts 230°
2026-05-04 18:11 -25.25320 -48.56662 14865 ft 269 kts 230°
2026-05-04 18:11 -25.26593 -48.58177 14553 ft 269 kts 231°
2026-05-04 18:12 -25.27863 -48.59689 14245 ft 268 kts 231°
2026-05-04 18:12 -25.29131 -48.61199 13936 ft 267 kts 231°
2026-05-04 18:12 -25.30386 -48.62694 13586 ft 266 kts 231°
2026-05-04 18:12 -25.31618 -48.64162 13243 ft 265 kts 231°
2026-05-04 18:13 -25.32879 -48.65666 12903 ft 264 kts 231°
2026-05-04 18:13 -25.34125 -48.67151 12571 ft 263 kts 231°
2026-05-04 18:13 -25.36606 -48.70111 11926 ft 261 kts 231°
2026-05-04 18:14 -25.37838 -48.71583 11607 ft 260 kts 231°
2026-05-04 18:14 -25.39066 -48.73049 11295 ft 259 kts 231°
2026-05-04 18:14 -25.40294 -48.74515 10977 ft 258 kts 231°
2026-05-04 18:15 -25.42717 -48.77411 10379 ft 257 kts 231°
2026-05-04 18:15 -25.45144 -48.80312 9780 ft 255 kts 231°
2026-05-04 18:15 -25.46345 -48.81750 9438 ft 254 kts 231°
2026-05-04 18:16 -25.47544 -48.83185 9140 ft 253 kts 231°
2026-05-04 18:16 -25.48735 -48.84612 8833 ft 253 kts 232°
2026-05-04 18:16 -25.49928 -48.86044 8527 ft 252 kts 233°
2026-05-04 18:17 -25.51495 -48.89358 7988 ft 242 kts 259°
2026-05-04 18:17 -25.51725 -48.91159 7983 ft 232 kts 271°
2026-05-04 18:17 -25.51462 -48.94558 7986 ft 222 kts 277°
2026-05-04 18:18 -25.51310 -48.96252 7985 ft 218 kts 278°
2026-05-04 18:18 -25.51147 -48.97918 7843 ft 220 kts 278°
2026-05-04 18:18 -25.50969 -48.99637 7493 ft 228 kts 279°
2026-05-04 18:18 -25.50792 -49.01388 7120 ft 229 kts 279°
2026-05-04 18:19 -25.50323 -49.04846 6377 ft 221 kts 290°
2026-05-04 18:19 -25.49743 -49.06406 6010 ft 218 kts 295°
2026-05-04 18:19 -25.49161 -49.07947 5646 ft 218 kts 295°
2026-05-04 18:20 -25.48579 -49.09490 5295 ft 219 kts 296°
2026-05-04 18:20 -25.48008 -49.10979 4955 ft 200 kts 296°
2026-05-04 18:20 -25.47497 -49.12333 4632 ft 180 kts 295°
2026-05-04 18:20 -25.47035 -49.13562 4515 ft 172 kts 296°
2026-05-04 18:21 -25.46572 -49.14766 4512 ft 165 kts 297°
2026-05-04 18:21 -25.46140 -49.15888 4473 ft 161 kts 296°
2026-05-04 18:21 -25.45712 -49.16998 4375 ft 147 kts 296°
2026-05-04 18:21 -25.45336 -49.17969 4288 ft 128 kts 300°
2026-05-04 18:22 -25.44978 -49.18850 4013 ft 123 kts 299°
2026-05-04 18:22 -25.44652 -49.19687 3797 ft 118 kts 296°
2026-05-04 18:22 -25.44243 -49.20449 3624 ft 117 kts 316°
2026-05-04 18:22 -25.43600 -49.21057 3762 ft 130 kts 326°
2026-05-04 18:23 -25.42798 -49.21603 3828 ft 138 kts 328°
2026-05-04 18:23 -25.42058 -49.22274 3482 ft 135 kts 323°
2026-05-04 18:23 -25.41394 -49.22785 3199 ft 106 kts 335°
2026-05-04 18:23 -25.40781 -49.23071 3033 ft 84 kts 340°
2026-05-04 18:24 -25.40377 -49.23260 3026 ft 40 kts 340°
2026-05-04 18:24 -25.40227 -49.23328 3024 ft 9 kts
2026-05-04 18:24 -25.40196 -49.23303 3022 ft 6 kts 71°
2026-05-04 18:24 -25.40200 -49.23263 3022 ft 3 kts 103°
2026-05-04 18:25 -25.40207 -49.23228 3019 ft 6 kts 103°
2026-05-04 18:25 -25.40219 -49.23176 3018 ft 5 kts 104°
2026-05-04 18:25 -25.40227 -49.23138 3017 ft 5 kts 101°
2026-05-04 18:25 -25.40234 -49.23099 3017 ft 6 kts 102°
2026-05-04 18:26 -25.40241 -49.23056 3017 ft 6 kts 96°
2026-05-04 18:26 -25.40249 -49.23039 3017 ft 1 kts 144°
2026-05-04 18:26 -25.40250 -49.23038 3017 ft 0 kts 150°
2026-05-04 18:27 -25.40277 -49.23043 3017 ft 6 kts 204°
2026-05-04 18:27 -25.40320 -49.23060 3017 ft 6 kts 191°
2026-05-04 18:27 -25.40341 -49.23042 3017 ft 4 kts 100°
2026-05-04 18:27 -25.40345 -49.23015 3017 ft 3 kts 99°
2026-05-04 18:28 -25.40345 -49.22998 3017 ft 2 kts 63°
2026-05-04 18:28 -25.40330 -49.22990 3017 ft 3 kts 10°
2026-05-04 18:28 -25.40326 -49.22989 3017 ft 0 kts 11°